Tracking 19905 objects as of 17-Oct-2019
HD Live streaming from Space Station
objects crossing your sky now

COSMOS 1382 DEB

Track COSMOS 1382 DEB now!


NORAD ID: 27903
Int'l Code: 1982-064E
Perigee: 3,948.9 km
Apogee: 37,232.8 km
Inclination: 68.5 °
Period: 734.3 minutes
Semi major axis: 26961 km
RCS: 0.3202 m2 (medium)
Launch date: June 25, 1982
Source: Commonwealth of Independent States (former USSR) (CIS)
Launch site: PLESETSK MISSILE AND SPACE COMPLEX (PKMTR)

Note: This is SATELLITE DEBRIS
aabbcc
Your satellite tracking list
Your tracking list is empty




NASA's NSSDC Master Catalog

Two Line Element Set (TLE):
1 27903U 82064E   19289.58163075 -.00000058  00000-0  00000+0 0  9998
2 27903  68.4884  73.1358 6172408  36.6661 352.6441  1.96100115123111
Source of the keplerian elements: AFSPC